Auburn, KS (66402)

4:42 PM CST on February 13, 2016 (GMT -0600)
South Pointe Bay Estates | | Change Station
CLOSE
Current Station
Personal Weather Station
Location: Auburn, KS
Elevation: 1096 ft
Nearby Weather Stations

Elev 1096 ft 38.95 °N, 95.80 °W | Updated 8 minutes ago

Overcast
Overcast
26.5 °F
Feels Like 18 °F
N
9.0
Wind Variable Wind from ENE
Gusts 14.0 mph

Today
High -- | Low -- °F
--% Chance of Precip.
Yesterday
High -- | Low -- °F
Precip. -- in
Pressure 30.35 in
Visibility 10.0 miles
Clouds Overcast 5500 ft
Windchill 18 °F
Dew Point 7 °F
Humidity 44%
Rainfall 0.00 in
Snow Depth Not available.
7:17 AM 5:58 PM
Waxing Crescent, 35% visible
METAR KFOE 132153Z AUTO 11013G19KT 10SM OVC055 M03/M16 A3031 RMK AO2 SLP278 T10331161
Pressure 30.35 in
Visibility 10.0 miles
Clouds Overcast 5500 ft
Windchill 18 °F
Dew Point 7 °F
Humidity 44%
Rainfall 0.00 in
Snow Depth Not available.
7:17 AM 5:58 PM
Waxing Crescent, 35% visible
METAR KFOE 132153Z AUTO 11013G19KT 10SM OVC055 M03/M16 A3031 RMK AO2 SLP278 T10331161

10-Day Weather Forecast

Almanac

Astronomy

Feb. 13, 2016 Rise Set
Actual Time
Civil Twilight
Nautical Twilight
Astronomical Twilight
Moon
Length of Visible Light
Length of Day
Tomorrow will be .
, % of the Moon is Illuminated

Today's Extremes

State Highs State Lows

Community

WunderPhotos

Upload Photos

1,892,689 photos uploaded!

WunderBlog® & News

Nearby

Air Quality

  Air Quality AQ Index Pollutant
Not available.

Snow Depth

Station Depth Elevation

Earthquake Activity

City Distance Mag. Time & Date
Minimum magnitude displayed is 2.5.

Coastal Water Temperatures

Place Temperature

Stations

Nearby Weather Stations

Station Location Temp. Windchill Dew Point Humidity Wind Precip. Elev Updated Type
                   

Watches & Warnings

There are currently no watches in effect.